QPF
0.01 0.02 0.02 0.02 0.02 0.01 0.01 0.01 0.01 0.01 0.01 0.01 0.00 0.00 0.00 0.01 0.01 0.01 0.01 0.00 0.01 0.01 0.01 0.00 0.00 0.00 0.00 0.00 0.00 0.00 0.00 0.00 0.00 0.00 0.00 0.01 0.02 0.02 0.01 0.01 0.01 0.01 0.01 0.02
0.02 0.02 0.01 0.01 0.01 0.01 0.01 0.01 0.01 0.01 0.01 0.01 0.00 0.00 0.00 0.00 0.00 0.01 0.01 0.01 0.01 0.01 0.01 0.01 0.00 0.00 0.00 0.00 0.00 0.00 0.00 0.00 0.00 0.00 0.01 0.01 0.01 0.03 0.02 0.01 0.02 0.02 0.02 0.02
0.02 0.01 0.01 0.01 0.01 0.01 0.01 0.01 0.01 0.01 0.01 0.00 0.00 0.00 0.00 0.00 0.00 0.01 0.01 0.00 0.00 0.01 0.01 0.01 0.00 0.00 0.00 0.00 0.00 0.00 0.00 0.00 0.00 0.01 0.01 0.02 0.02 0.02 0.02 0.02 0.02 0.01 0.01 0.01
0.01 0.01 0.00 0.01 0.01 0.01 0.01 0.01 0.01 0.01 0.01 0.01 0.00 0.01 0.00 0.00 0.00 0.00 0.00 0.00 0.00 0.00 0.00 0.00 0.00 0.00 0.00 0.00 0.00 0.00 0.00 0.00 0.00 0.00 0.00 0.01 0.03 0.03 0.03 0.02 0.02 0.01 0.01 0.01
0.02 0.01 0.01 0.01 0.01 0.01 0.01 0.00 0.01 0.01 0.01 0.00 0.00 0.01 0.01 0.00 0.00 0.00 0.00 0.00 0.00 0.00 0.00 0.00 0.00 0.00 0.00 0.00 0.00 0.00 0.00 0.00 0.00 0.00 0.00 0.00 0.00 0.01 0.02 0.03 0.02 0.01 0.01 0.01
0.01 0.01 0.01 0.01 0.00 0.00 0.00 0.00 0.00 0.01 0.01 0.01 0.00 0.01 0.01 0.00 0.00 0.00 0.00 0.00 0.00 0.00 0.01 0.00 0.00 0.00 0.00 0.00 0.00 0.00 0.00 0.00 0.00 0.00 0.01 0.01 0.01 0.01 0.01 0.01 0.02 0.02 0.01 0.01
0.01 0.01 0.00 0.00 0.00 0.00 0.00 0.01 0.01 0.01 0.01 0.01 0.00 0.00 0.00 0.00 0.00 0.00 0.00 0.00 0.00 0.00 0.01 0.00 0.00 0.00 0.00 0.00 0.00 0.00 0.00 0.00 0.00 0.00 0.00 0.00 0.00 0.01 0.02 0.02 0.01 0.01 0.01 0.01
0.01 0.01 0.00 0.00 0.00 0.01 0.01 0.01 0.02 0.02 0.01 0.01 0.00 0.00 0.00 0.00 0.00 0.00 0.00 0.00 0.00 0.00 0.00 0.00 0.00 0.00 0.00 0.00 0.00 0.00 0.00 0.00 0.00 0.00 0.00 0.00 0.00 0.01 0.01 0.01 0.01 0.01 0.01 0.01
0.00 0.00 0.00 0.00 0.00 0.00 0.01 0.00 0.00 0.01 0.00 0.00 0.01 0.00 0.00 0.00 0.00 0.00 0.01 0.01 0.00 0.00 0.00 0.00 0.00 0.00 0.00 0.00 0.00 0.00 0.00 0.00 0.00 0.00 0.01 0.01 0.01 0.01 0.01 0.01 0.01 0.01 0.01 0.01
0.00 0.00 0.00 0.00 0.00 0.00 0.00 0.00 0.00 0.01 0.01 0.00 0.00 0.00 0.00 0.00 0.00 0.00 0.01 0.00 0.00 0.00 0.00 0.00 0.00 0.00 0.00 0.00 0.00 0.00 0.00 0.00 0.00 0.00 0.01 0.01 0.01 0.01 0.01 0.01 0.01 0.01 0.01 0.02
0.00 0.00 0.00 0.00 0.00 0.00 0.00 0.00 0.00 0.01 0.00 0.00 0.00 0.00 0.00 0.00 0.00 0.00 0.00 0.00 0.00 0.00 0.00 0.00 0.00 0.00 0.00 0.00 0.00 0.00 0.00 0.00 0.00 0.00 0.00 0.00 0.01 0.01 0.01 0.01 0.01 0.00 0.01 0.01
0.00 0.00 0.00 0.00 0.00 0.00 0.00 0.00 0.00 0.01 0.00 0.00 0.00 0.00 0.00 0.00 0.00 0.01 0.00 0.00 0.00 0.00 0.00 0.00 0.00 0.00 0.00 0.00 0.00 0.00 0.00 0.00 0.00 0.00 0.00 0.00 0.00 0.01 0.01 0.01 0.01 0.01 0.01 0.01
0.00 0.01 0.00 0.00 0.00 0.00 0.00 0.00 0.00 0.00 0.01 0.00 0.01 0.00 0.00 0.00 0.00 0.01 0.00 0.00 0.00 0.00 0.00 0.00 0.00 0.00 0.00 0.00 0.00 0.00 0.00 0.00 0.00 0.00 0.00 0.00 0.00 0.00 0.01 0.01 0.01 0.01 0.01 0.01
0.00 0.00 0.00 0.00 0.00 0.00 0.00 0.00 0.00 0.00 0.01 0.00 0.00 0.00 0.00 0.00 0.00 0.00 0.00 0.00 0.00 0.00 0.00 0.00 0.00 0.00 0.00 0.00 0.00 0.00 0.00 0.00 0.00 0.00 0.00 0.00 0.00 0.00 0.01 0.01 0.01 0.01 0.01 0.01
0.00 0.00 0.00 0.00 0.00 0.00 0.00 0.00 0.00 0.00 0.00 0.00 0.00 0.00 0.00 0.00 0.00 0.00 0.01 0.00 0.00 0.00 0.00 0.00 0.00 0.00 0.00 0.00 0.00 0.00 0.00 0.00 0.00 0.00 0.00 0.00 0.00 0.00 0.01 0.02 0.01 0.01 0.01 0.01
0.00 0.00 0.00 0.00 0.00 0.00 0.00 0.00 0.00 0.00 0.00 0.00 0.00 0.00 0.00 0.00 0.00 0.00 0.01 0.00 0.00 0.00 0.00 0.00 0.00 0.00 0.00 0.00 0.00 0.00 0.00 0.00 0.00 0.00 0.00 0.00 0.00 0.01 0.02 0.02 0.01 0.01 0.01 0.01
0.01 0.01 0.01 0.00 0.00 0.00 0.00 0.00 0.00 0.00 0.00 0.00 0.00 0.00 0.00 0.00 0.00 0.00 0.00 0.00 0.00 0.00 0.00 0.00 0.00 0.00 0.00 0.00 0.00 0.00 0.00 0.00 0.00 0.00 0.00 0.00 0.00 0.01 0.02 0.02 0.01 0.01 0.01 0.01
0.01 0.01 0.02 0.01 0.00 0.01 0.00 0.00 0.00 0.00 0.00 0.00 0.00 0.00 0.00 0.00 0.00 0.00 0.00 0.00 0.00 0.00 0.00 0.00 0.00 0.00 0.00 0.00 0.00 0.00 0.00 0.00 0.00 0.00 0.00 0.00 0.01 0.01 0.02 0.03 0.02 0.01 0.01 0.01
0.00 0.01 0.03 0.02 0.01 0.00 0.00 0.00 0.00 0.00 0.00 0.00 0.00 0.00 0.00 0.00 0.00 0.00 0.00 0.00 0.00 0.00 0.00 0.00 0.00 0.00 0.00 0.00 0.00 0.00 0.00 0.00 0.00 0.00 0.00 0.00 0.01 0.02 0.03 0.04 0.02 0.01 0.01 0.01
0.00 0.01 0.03 0.03 0.02 0.01 0.01 0.00 0.00 0.00 0.00 0.00 0.00 0.00 0.00 0.00 0.00 0.00 0.00 0.00 0.00 0.00 0.00 0.00 0.00 0.00 0.00 0.00 0.00 0.00 0.00 0.00 0.00 0.00 0.00 0.01 0.01 0.02 0.03 0.04 0.03 0.02 0.01 0.01
0.01 0.02 0.02 0.02 0.02 0.01 0.00 0.00 0.00 0.00 0.01 0.00 0.00 0.00 0.00 0.00 0.00 0.00 0.00 0.00 0.00 0.00 0.00 0.00 0.00 0.00 0.00 0.00 0.00 0.00 0.00 0.00 0.00 0.00 0.00 0.01 0.02 0.02 0.03 0.04 0.04 0.02 0.01 0.01
0.00 0.01 0.01 0.01 0.02 0.01 0.00 0.00 0.01 0.01 0.01 0.00 0.00 0.00 0.00 0.00 0.00 0.00 0.00 0.00 0.00 0.00 0.00 0.00 0.00 0.00 0.00 0.00 0.00 0.00 0.00 0.00 0.00 0.00 0.00 0.01 0.02 0.02 0.03 0.03 0.04 0.03 0.01 0.01
0.00 0.00 0.01 0.01 0.01 0.00 0.00 0.00 0.00 0.00 0.00 0.00 0.00 0.00 0.00 0.00 0.00 0.00 0.00 0.00 0.00 0.00 0.00 0.00 0.00 0.00 0.00 0.00 0.00 0.00 0.00 0.00 0.00 0.00 0.01 0.01 0.02 0.03 0.03 0.03 0.04 0.03 0.01 0.01
0.00 0.00 0.00 0.00 0.00 0.00 0.00 0.00 0.00 0.00 0.01 0.01 0.00 0.00 0.00 0.00 0.00 0.00 0.00 0.00 0.00 0.00 0.00 0.00 0.00 0.00 0.00 0.00 0.00 0.00 0.00 0.00 0.00 0.00 0.01 0.01 0.02 0.03 0.03 0.03 0.03 0.03 0.02 0.01
0.00 0.00 0.00 0.00 0.00 0.00 0.00 0.00 0.00 0.00 0.00 0.00 0.00 0.00 0.00 0.00 0.00 0.00 0.00 0.00 0.00 0.00 0.00 0.00 0.00 0.00 0.00 0.00 0.00 0.00 0.00 0.00 0.00 0.00 0.01 0.01 0.02 0.02 0.03 0.03 0.03 0.02 0.02 0.02
0.00 0.00 0.00 0.00 0.00 0.00 0.00 0.00 0.00 0.00 0.00 0.00 0.00 0.00 0.00 0.00 0.00 0.00 0.00 0.00 0.00 0.00 0.00 0.00 0.00 0.00 0.00 0.00 0.00 0.00 0.00 0.00 0.00 0.01 0.01 0.01 0.01 0.02 0.02 0.02 0.02 0.02 0.02 0.01
MSLP
1013.24 1012.92 1012.60 1012.32 1012.10 1011.97 1011.94 1012.01 1012.18 1012.41 1012.69 1012.97 1013.25 1013.50 1013.73 1013.95 1014.18 1014.42 1014.70 1015.02 1015.39 1015.80 1016.22 1016.65 1017.05 1017.41 1017.72 1017.96 1018.15 1018.28 1018.38 1018.45 1018.50 1018.54 1018.57 1018.58 1018.58 1018.54 1018.47 1018.37 1018.25 1018.11 1017.97 1017.84
1013.98 1013.69 1013.37 1013.06 1012.81 1012.64 1012.57 1012.60 1012.72 1012.91 1013.12 1013.34 1013.53 1013.69 1013.83 1013.96 1014.10 1014.28 1014.52 1014.83 1015.20 1015.62 1016.06 1016.49 1016.90 1017.26 1017.57 1017.82 1018.03 1018.21 1018.37 1018.52 1018.66 1018.78 1018.87 1018.91 1018.90 1018.83 1018.70 1018.53 1018.33 1018.14 1017.97 1017.83
1014.70 1014.45 1014.15 1013.85 1013.59 1013.41 1013.31 1013.31 1013.39 1013.51 1013.64 1013.74 1013.80 1013.82 1013.80 1013.79 1013.82 1013.91 1014.09 1014.38 1014.75 1015.19 1015.67 1016.14 1016.58 1016.98 1017.31 1017.60 1017.85 1018.08 1018.30 1018.52 1018.73 1018.92 1019.05 1019.13 1019.12 1019.02 1018.86 1018.64 1018.40 1018.17 1017.98 1017.85
1015.33 1015.12 1014.87 1014.60 1014.37 1014.20 1014.11 1014.10 1014.14 1014.19 1014.22 1014.18 1014.07 1013.90 1013.70 1013.50 1013.37 1013.35 1013.46 1013.71 1014.09 1014.57 1015.11 1015.65 1016.16 1016.61 1017.00 1017.33 1017.62 1017.89 1018.16 1018.43 1018.69 1018.92 1019.10 1019.19 1019.20 1019.10 1018.92 1018.69 1018.44 1018.21 1018.02 1017.91
1015.83 1015.68 1015.47 1015.26 1015.08 1014.96 1014.91 1014.91 1014.93 1014.92 1014.84 1014.66 1014.37 1013.99 1013.57 1013.17 1012.86 1012.70 1012.72 1012.94 1013.33 1013.87 1014.48 1015.11 1015.70 1016.23 1016.68 1017.07 1017.39 1017.69 1017.98 1018.27 1018.55 1018.80 1018.99 1019.11 1019.13 1019.06 1018.90 1018.68 1018.45 1018.24 1018.08 1017.98
1016.21 1016.09 1015.94 1015.80 1015.69 1015.65 1015.66 1015.70 1015.72 1015.67 1015.50 1015.18 1014.71 1014.13 1013.49 1012.88 1012.39 1012.09 1012.02 1012.20 1012.60 1013.18 1013.88 1014.60 1015.29 1015.91 1016.43 1016.85 1017.20 1017.51 1017.79 1018.07 1018.33 1018.58 1018.78 1018.91 1018.96 1018.91 1018.79 1018.62 1018.44 1018.27 1018.14 1018.06
1016.46 1016.39 1016.29 1016.22 1016.20 1016.24 1016.33 1016.43 1016.48 1016.41 1016.17 1015.74 1015.12 1014.35 1013.52 1012.73 1012.07 1011.63 1011.47 1011.60 1012.01 1012.63 1013.39 1014.20 1014.98 1015.67 1016.25 1016.71 1017.07 1017.36 1017.61 1017.85 1018.09 1018.31 1018.50 1018.63 1018.71 1018.70 1018.64 1018.53 1018.40 1018.28 1018.18 1018.12
1016.63 1016.58 1016.54 1016.54 1016.60 1016.74 1016.91 1017.08 1017.16 1017.09 1016.82 1016.31 1015.58 1014.68 1013.70 1012.75 1011.95 1011.40 1011.15 1011.24 1011.63 1012.27 1013.07 1013.94 1014.77 1015.52 1016.13 1016.61 1016.97 1017.24 1017.46 1017.65 1017.84 1018.03 1018.20 1018.34 1018.43 1018.47 1018.46 1018.41 1018.34 1018.26 1018.20 1018.14
1016.74 1016.72 1016.72 1016.79 1016.93 1017.14 1017.38 1017.61 1017.73 1017.68 1017.39 1016.84 1016.05 1015.08 1014.01 1012.96 1012.06 1011.42 1011.10 1011.12 1011.48 1012.09 1012.90 1013.77 1014.63 1015.40 1016.03 1016.51 1016.87 1017.12 1017.30 1017.46 1017.61 1017.77 1017.92 1018.06 1018.17 1018.24 1018.28 1018.28 1018.25 1018.21 1018.16 1018.11
1016.83 1016.83 1016.87 1016.98 1017.18 1017.44 1017.73 1017.99 1018.13 1018.10 1017.82 1017.27 1016.47 1015.47 1014.37 1013.28 1012.33 1011.63 1011.24 1011.20 1011.48 1012.04 1012.79 1013.63 1014.46 1015.21 1015.84 1016.33 1016.68 1016.92 1017.10 1017.24 1017.38 1017.52 1017.66 1017.80 1017.93 1018.03 1018.10 1018.13 1018.14 1018.12 1018.09 1018.02
1016.93 1016.96 1017.03 1017.16 1017.37 1017.63 1017.92 1018.17 1018.31 1018.27 1018.00 1017.47 1016.70 1015.73 1014.66 1013.60 1012.65 1011.91 1011.47 1011.35 1011.54 1011.99 1012.64 1013.39 1014.16 1014.87 1015.47 1015.96 1016.32 1016.59 1016.79 1016.95 1017.10 1017.26 1017.41 1017.57 1017.71 1017.83 1017.92 1017.98 1018.01 1018.00 1017.97 1017.89
1017.08 1017.12 1017.20 1017.32 1017.49 1017.71 1017.93 1018.12 1018.20 1018.13 1017.86 1017.36 1016.65 1015.76 1014.77 1013.77 1012.87 1012.14 1011.66 1011.45 1011.53 1011.85 1012.36 1012.98 1013.65 1014.29 1014.86 1015.35 1015.75 1016.06 1016.32 1016.55 1016.75 1016.95 1017.14 1017.33 1017.49 1017.63 1017.73 1017.81 1017.85 1017.85 1017.82 1017.74
1017.28 1017.34 1017.40 1017.47 1017.56 1017.66 1017.76 1017.82 1017.80 1017.66 1017.36 1016.89 1016.25 1015.47 1014.60 1013.71 1012.89 1012.20 1011.70 1011.42 1011.38 1011.55 1011.89 1012.37 1012.90 1013.46 1014.00 1014.50 1014.95 1015.35 1015.70 1016.02 1016.31 1016.58 1016.83 1017.05 1017.25 1017.40 1017.52 1017.61 1017.66 1017.68 1017.65 1017.59
1017.56 1017.61 1017.63 1017.61 1017.57 1017.51 1017.42 1017.30 1017.12 1016.87 1016.52 1016.07 1015.50 1014.84 1014.12 1013.37 1012.67 1012.04 1011.55 1011.22 1011.06 1011.08 1011.26 1011.57 1011.98 1012.45 1012.96 1013.47 1013.98 1014.48 1014.94 1015.38 1015.78 1016.15 1016.47 1016.74 1016.97 1017.15 1017.29 1017.39 1017.45 1017.49 1017.49 1017.46
1017.90 1017.94 1017.89 1017.75 1017.54 1017.27 1016.95 1016.60 1016.24 1015.84 1015.43 1014.98 1014.48 1013.95 1013.39 1012.81 1012.24 1011.71 1011.25 1010.89 1010.64 1010.53 1010.55 1010.71 1010.99 1011.37 1011.84 1012.38 1012.95 1013.54 1014.13 1014.69 1015.21 1015.67 1016.06 1016.39 1016.66 1016.86 1017.02 1017.14 1017.24 1017.30 1017.34 1017.35
1018.28 1018.28 1018.15 1017.88 1017.48 1016.98 1016.42 1015.83 1015.26 1014.72 1014.22 1013.76 1013.34 1012.94 1012.54 1012.13 1011.72 1011.30 1010.90 1010.53 1010.22 1009.99 1009.88 1009.91 1010.07 1010.38 1010.81 1011.36 1011.99 1012.67 1013.36 1014.03 1014.64 1015.19 1015.65 1016.03 1016.33 1016.56 1016.75 1016.89 1017.01 1017.12 1017.20 1017.25
1018.64 1018.61 1018.39 1017.98 1017.39 1016.68 1015.89 1015.08 1014.31 1013.63 1013.06 1012.60 1012.24 1011.96 1011.72 1011.49 1011.23 1010.94 1010.61 1010.26 1009.91 1009.61 1009.40 1009.31 1009.38 1009.61 1010.01 1010.55 1011.21 1011.95 1012.71 1013.46 1014.15 1014.75 1015.26 1015.68 1016.00 1016.26 1016.46 1016.64 1016.79 1016.93 1017.06 1017.17
1018.90 1018.83 1018.53 1018.00 1017.27 1016.38 1015.41 1014.42 1013.51 1012.72 1012.09 1011.64 1011.35 1011.18 1011.08 1011.01 1010.90 1010.73 1010.48 1010.17 1009.81 1009.47 1009.18 1009.01 1009.00 1009.16 1009.52 1010.04 1010.71 1011.46 1012.26 1013.04 1013.76 1014.40 1014.93 1015.36 1015.69 1015.96 1016.19 1016.38 1016.57 1016.75 1016.92 1017.07
1018.98 1018.86 1018.50 1017.90 1017.07 1016.07 1014.99 1013.90 1012.90 1012.05 1011.41 1010.98 1010.75 1010.68 1010.71 1010.77 1010.79 1010.72 1010.56 1010.29 1009.95 1009.58 1009.25 1009.02 1008.95 1009.06 1009.36 1009.85 1010.49 1011.23 1012.01 1012.79 1013.50 1014.12 1014.65 1015.07 1015.41 1015.68 1015.91 1016.13 1016.35 1016.56 1016.76 1016.94
1018.80 1018.65 1018.25 1017.61 1016.75 1015.72 1014.60 1013.49 1012.47 1011.63 1011.00 1010.62 1010.45 1010.46 1010.58 1010.74 1010.85 1010.88 1010.78 1010.56 1010.24 1009.88 1009.53 1009.27 1009.16 1009.21 1009.47 1009.91 1010.50 1011.19 1011.93 1012.66 1013.33 1013.92 1014.41 1014.81 1015.13 1015.40 1015.64 1015.87 1016.11 1016.34 1016.57 1016.77
1018.33 1018.14 1017.74 1017.10 1016.26 1015.27 1014.20 1013.14 1012.17 1011.38 1010.81 1010.48 1010.37 1010.44 1010.62 1010.84 1011.01 1011.09 1011.04 1010.87 1010.58 1010.24 1009.90 1009.63 1009.49 1009.52 1009.73 1010.11 1010.64 1011.26 1011.93 1012.59 1013.21 1013.74 1014.19 1014.56 1014.86 1015.12 1015.36 1015.60 1015.85 1016.10 1016.34 1016.55
1017.57 1017.35 1016.95 1016.36 1015.59 1014.69 1013.72 1012.77 1011.92 1011.22 1010.72 1010.45 1010.38 1010.48 1010.69 1010.92 1011.12 1011.23 1011.22 1011.08 1010.83 1010.52 1010.21 1009.96 1009.82 1009.83 1010.01 1010.34 1010.80 1011.35 1011.95 1012.53 1013.07 1013.55 1013.95 1014.28 1014.57 1014.81 1015.06 1015.30 1015.56 1015.82 1016.07 1016.29
1016.60 1016.34 1015.95 1015.41 1014.74 1013.97 1013.15 1012.35 1011.62 1011.03 1010.62 1010.41 1010.36 1010.47 1010.67 1010.89 1011.08 1011.19 1011.19 1011.08 1010.88 1010.62 1010.35 1010.14 1010.02 1010.04 1010.19 1010.49 1010.89 1011.38 1011.90 1012.41 1012.89 1013.31 1013.67 1013.98 1014.24 1014.49 1014.73 1014.98 1015.24 1015.51 1015.76 1015.98
1015.51 1015.21 1014.82 1014.35 1013.79 1013.16 1012.49 1011.84 1011.26 1010.78 1010.45 1010.27 1010.24 1010.32 1010.48 1010.66 1010.82 1010.92 1010.93 1010.84 1010.69 1010.48 1010.28 1010.12 1010.05 1010.08 1010.24 1010.51 1010.87 1011.30 1011.76 1012.21 1012.63 1013.01 1013.34 1013.63 1013.89 1014.14 1014.39 1014.65 1014.91 1015.17 1015.42 1015.65
1014.46 1014.10 1013.72 1013.30 1012.84 1012.34 1011.82 1011.31 1010.85 1010.47 1010.20 1010.04 1009.99 1010.03 1010.13 1010.26 1010.38 1010.45 1010.46 1010.41 1010.30 1010.17 1010.04 1009.94 1009.92 1009.98 1010.15 1010.40 1010.73 1011.12 1011.52 1011.93 1012.31 1012.66 1012.98 1013.26 1013.53 1013.78 1014.04 1014.30 1014.57 1014.82 1015.07 1015.29
1013.55 1013.15 1012.77 1012.40 1012.02 1011.63 1011.23 1010.84 1010.48 1010.17 1009.93 1009.77 1009.69 1009.68 1009.73 1009.80 1009.87 1009.91 1009.93 1009.90 1009.85 1009.78 1009.72 1009.69 1009.72 1009.81 1009.99 1010.23 1010.53 1010.87 1011.24 1011.60 1011.96 1012.29 1012.60 1012.89 1013.16 1013.43 1013.70 1013.97 1014.23 1014.48 1014.72 1014.93
Thickness
5579 5572 5569 5574 5579 5582 5585 5585 5585 5590 5598 5596 5597 5601 5609 5615 5616 5617 5616 5615 5614 5614 5616 5616 5615 5613 5612 5611 5611 5611 5611 5611 5612 5612 5613 5614 5615 5616 5617 5618 5619 5620 5622 5624
5571 5566 5573 5578 5579 5580 5581 5579 5581 5588 5595 5594 5594 5599 5610 5614 5616 5617 5616 5613 5612 5611 5611 5610 5609 5607 5606 5605 5604 5604 5604 5604 5604 5604 5604 5605 5606 5607 5608 5608 5610 5611 5612 5614
5566 5567 5574 5575 5574 5576 5576 5574 5575 5578 5585 5591 5589 5593 5606 5614 5615 5615 5615 5614 5611 5609 5607 5606 5604 5602 5600 5599 5598 5598 5597 5597 5597 5596 5597 5597 5598 5598 5598 5599 5600 5601 5602 5605
5564 5568 5570 5569 5569 5572 5568 5575 5575 5574 5571 5574 5584 5574 5600 5607 5608 5609 5609 5608 5607 5607 5605 5602 5600 5598 5595 5594 5593 5592 5591 5590 5589 5589 5588 5587 5587 5587 5588 5589 5590 5592 5593 5596
5560 5562 5563 5563 5565 5568 5566 5573 5571 5570 5568 5568 5579 5573 5592 5605 5602 5604 5605 5605 5604 5603 5601 5598 5596 5594 5591 5589 5586 5585 5584 5583 5582 5581 5580 5579 5579 5579 5579 5580 5581 5583 5584 5586
5559 5561 5560 5560 5564 5565 5566 5567 5568 5566 5562 5559 5579 5575 5585 5599 5604 5606 5605 5603 5601 5599 5596 5594 5591 5588 5585 5582 5580 5578 5577 5576 5575 5574 5572 5571 5570 5570 5570 5570 5571 5573 5575 5577
5559 5558 5558 5558 5558 5561 5560 5554 5551 5553 5554 5564 5583 5577 5583 5603 5607 5606 5602 5599 5597 5594 5590 5587 5584 5581 5578 5575 5573 5571 5570 5568 5567 5566 5564 5563 5562 5561 5561 5561 5562 5563 5565 5567
5552 5549 5554 5554 5553 5551 5554 5554 5545 5546 5554 5564 5574 5571 5587 5600 5601 5600 5597 5594 5591 5588 5584 5582 5579 5575 5572 5569 5567 5564 5563 5561 5560 5558 5556 5555 5554 5553 5552 5553 5553 5553 5555 5557
5546 5546 5551 5552 5552 5551 5551 5550 5553 5543 5548 5550 5565 5583 5592 5594 5590 5589 5588 5585 5582 5581 5579 5576 5573 5569 5566 5563 5560 5558 5556 5554 5552 5550 5548 5547 5546 5544 5544 5544 5544 5544 5546 5547
5545 5537 5547 5548 5547 5546 5545 5547 5542 5539 5539 5547 5567 5579 5578 5581 5581 5580 5579 5577 5576 5575 5572 5570 5566 5563 5560 5556 5553 5551 5548 5547 5544 5542 5540 5539 5537 5536 5536 5535 5535 5536 5536 5538
5542 5532 5538 5543 5541 5543 5540 5540 5539 5538 5540 5538 5546 5564 5583 5580 5579 5576 5574 5573 5571 5568 5565 5563 5560 5557 5553 5550 5546 5543 5541 5539 5537 5535 5533 5531 5529 5528 5527 5527 5527 5527 5527 5528
5538 5531 5527 5540 5545 5543 5542 5542 5537 5527 5533 5538 5534 5550 5579 5576 5574 5571 5568 5567 5565 5562 5560 5557 5554 5550 5546 5542 5539 5536 5533 5531 5529 5527 5524 5522 5521 5520 5519 5518 5518 5518 5518 5519
5532 5525 5519 5533 5532 5532 5532 5536 5536 5531 5525 5524 5527 5547 5570 5568 5566 5564 5562 5560 5557 5556 5554 5550 5546 5543 5539 5535 5532 5529 5526 5523 5521 5518 5516 5514 5512 5511 5510 5509 5509 5509 5509 5510
5527 5520 5517 5525 5534 5530 5526 5528 5529 5521 5510 5519 5532 5546 5559 5559 5557 5556 5554 5553 5551 5549 5546 5543 5539 5536 5532 5529 5526 5522 5519 5516 5513 5510 5507 5505 5504 5503 5502 5501 5501 5501 5501 5501
5519 5513 5520 5526 5532 5532 5529 5528 5526 5520 5520 5518 5534 5541 5551 5552 5550 5550 5549 5547 5545 5542 5540 5536 5532 5528 5525 5522 5519 5515 5511 5508 5505 5502 5499 5497 5496 5494 5494 5493 5493 5493 5493 5492
5515 5509 5512 5515 5527 5526 5525 5531 5529 5526 5526 5527 5530 5537 5548 5548 5547 5545 5542 5540 5537 5534 5532 5529 5525 5522 5518 5515 5512 5508 5504 5501 5497 5494 5491 5489 5487 5486 5485 5484 5484 5485 5484 5484
5505 5502 5501 5507 5525 5519 5518 5539 5534 5532 5535 5530 5527 5537 5542 5540 5539 5536 5534 5532 5529 5526 5524 5521 5517 5514 5511 5508 5505 5501 5497 5493 5489 5486 5483 5481 5479 5478 5477 5477 5476 5476 5476 5475
5501 5497 5492 5497 5504 5502 5539 5548 5545 5538 5537 5534 5534 5536 5535 5533 5531 5530 5526 5522 5520 5517 5515 5513 5509 5507 5503 5501 5498 5494 5490 5486 5482 5478 5476 5474 5472 5470 5470 5469 5468 5468 5467 5466
5500 5492 5487 5488 5492 5510 5535 5539 5535 5528 5526 5531 5529 5529 5528 5526 5521 5518 5518 5515 5511 5508 5506 5503 5501 5498 5496 5493 5490 5486 5481 5478 5474 5471 5469 5467 5465 5463 5462 5461 5461 5461 5460 5459
5488 5484 5477 5482 5483 5493 5529 5527 5526 5520 5510 5523 5523 5520 5517 5512 5501 5506 5509 5507 5503 5501 5497 5495 5493 5490 5487 5484 5481 5477 5474 5470 5467 5465 5463 5460 5459 5457 5455 5455 5454 5454 5453 5452
5469 5468 5467 5470 5475 5495 5520 5516 5512 5501 5507 5514 5513 5509 5505 5499 5496 5498 5499 5497 5494 5492 5490 5488 5485 5481 5479 5477 5473 5470 5467 5464 5463 5460 5457 5454 5452 5450 5449 5448 5447 5447 5445 5444
5472 5466 5466 5468 5467 5487 5508 5500 5496 5500 5506 5506 5503 5500 5495 5493 5493 5491 5489 5488 5486 5483 5481 5479 5476 5474 5472 5470 5466 5463 5461 5459 5456 5453 5450 5448 5445 5444 5443 5440 5440 5439 5438 5435
5482 5482 5480 5480 5490 5504 5501 5498 5498 5498 5495 5494 5491 5489 5486 5483 5482 5482 5480 5478 5477 5475 5473 5471 5468 5466 5465 5463 5460 5457 5455 5452 5450 5447 5444 5441 5439 5437 5436 5434 5432 5432 5430 5428
5485 5486 5480 5478 5489 5494 5494 5493 5490 5488 5485 5484 5481 5478 5476 5474 5474 5472 5471 5470 5468 5466 5465 5463 5461 5459 5457 5456 5454 5452 5449 5446 5443 5440 5437 5435 5432 5430 5429 5427 5426 5424 5423 5421
5477 5471 5464 5466 5477 5480 5484 5483 5481 5479 5476 5473 5471 5469 5466 5464 5464 5463 5461 5461 5459 5458 5456 5455 5453 5452 5451 5450 5448 5446 5443 5439 5435 5433 5430 5428 5426 5424 5423 5421 5419 5419 5418 5416
5468 5462 5456 5464 5471 5468 5471 5473 5471 5467 5465 5462 5460 5459 5458 5456 5454 5454 5452 5452 5450 5449 5448 5446 5445 5444 5444 5443 5441 5439 5437 5433 5429 5426 5424 5422 5420 5418 5416 5414 5412 5412 5411 5410